{"data":{"norad_id":57742,"intl_designator":"2023-131L","name":"STARLINK-30308","alt_names":[],"object_type":"PAYLOAD","status":"ACTIVE","operator":null,"country":"US","launch_date":"2023-09-01","launch_site_code":"AFETR","launch_vehicle":null,"mission":null,"orbit_class":"UNKNOWN","rcs_meters":null,"size_class":null,"mass_kg":null,"dimensions":null,"purposes":["comms"],"wikipedia_slug":null,"has_3d_model":false,"image_url":null,"decayed_at":null,"tle_current":{"epoch":"2026-05-25T04:11:45.458880Z","epoch_age_seconds":66700,"freshness":"FRESH","line1":"1 57742U 23131L   26145.17483170  .00000930  00000+0  43316-4 0  9996","line2":"2 57742  43.0024 100.5282 0001057 265.2216  94.8515 15.27573572151626","mean_motion":15.27573572,"eccentricity":0.0001057,"inclination_deg":43.0024,"raan_deg":100.5282,"arg_perigee_deg":265.2216,"mean_anomaly_deg":94.8515,"bstar":4.3316e-5,"rev_number":15162,"period_min":94.267145386304,"perigee_km":482.34311444676,"apogee_km":483.79357325645,"semimajor_km":6861.2053438516,"source":"CELESTRAK","updated_at":"2026-05-25T13:38:18.400513Z"}}}